Estación Meteorológica de la Universidad de Murcia
Estación Meteorológica de la Universidad de Murcia
Universidad de Murcia
 

Humedad relativaHumedad relativa

 

Máxima: 85,4 % a las 06:20:00 del día 15/12/2017
Mínima: 33,9 % a las 13:13:00 del día 15/12/2017

||Humedad máxima últimos meses|| ---- ||Humedad mínima últimos meses||


Humedad máxima

  • 1 - 85,4 % del día 15/12/2017
  • 2 - 70,2 % del día 14/12/2017
  • 3 - 76,6 % del día 13/12/2017
  • 4 - 89 % del día 12/12/2017
  • 5 - 89,9 % del día 11/12/2017
  • 6 - 85,4 % del día 10/12/2017
  • 7 - 79,9 % del día 09/12/2017
  • 8 - 80,7 % del día 08/12/2017
  • 9 - 94,8 % del día 07/12/2017
  • 10 - 85 % del día 06/12/2017
  • 11 - 76,2 % del día 05/12/2017
  • 12 - 76,1 % del día 04/12/2017
  • 13 - 54,4 % del día 03/12/2017
  • 14 - 54,2 % del día 02/12/2017
  • 15 - 70,7 % del día 01/12/2017
  • 16 - 95,7 % del día 30/11/2017
  • 17 - 97,4 % del día 29/11/2017
  • 18 - 90,5 % del día 28/11/2017
  • 19 - 81,5 % del día 27/11/2017
  • 20 - 89,9 % del día 26/11/2017
  • 21 - 65 % del día 25/11/2017
  • 22 - 75,7 % del día 24/11/2017
  • 23 - 78,5 % del día 23/11/2017
  • 24 - 83,1 % del día 22/11/2017
  • 25 - 89,4 % del día 21/11/2017
  • 26 - 91,2 % del día 20/11/2017
  • 27 - 92,3 % del día 19/11/2017
  • 28 - 92,8 % del día 18/11/2017
  • 29 - 93,2 % del día 17/11/2017
  • 30 - 88,7 % del día 16/11/2017
  • 31 - 75,8 % del día 15/11/2017
  • 32 - 70 % del día 14/11/2017
  • 33 - 49,1 % del día 13/11/2017
  • 34 - 65,2 % del día 12/11/2017
  • 35 - 66 % del día 11/11/2017
  • 36 - 60,5 % del día 10/11/2017
  • 37 - 54,6 % del día 09/11/2017
  • 38 - 65,9 % del día 08/11/2017
  • 39 - 63,2 % del día 07/11/2017
  • 40 - 55,1 % del día 06/11/2017
  • 41 - 80,9 % del día 05/11/2017
  • 42 - 92,6 % del día 04/11/2017
  • 43 - 90,6 % del día 03/11/2017
  • 44 - 94,5 % del día 02/11/2017
  • 45 - 93,5 % del día 01/11/2017
  • 46 - 91,1 % del día 31/10/2017
  • 47 - 88,3 % del día 30/10/2017
  • 48 - 93,6 % del día 29/10/2017
  • 49 - 92,4 % del día 28/10/2017
  • 50 - 79,3 % del día 27/10/2017
  • 51 - 93,6 % del día 26/10/2017
  • 52 - 89,9 % del día 25/10/2017
  • 53 - 90,4 % del día 24/10/2017
  • 54 - 87,1 % del día 23/10/2017
  • 55 - 81,5 % del día 22/10/2017
  • 56 - 82,1 % del día 21/10/2017
  • 57 - 75,9 % del día 20/10/2017
  • 58 - 100 % del día 19/10/2017
  • 59 - 100 % del día 18/10/2017
  • 60 - 0 % del día 17/10/2017

||Volver al inicio de la página||


Humedad mínima

  • 1 - 33,9 % del día 15/12/2017
  • 2 - 34,1 % del día 14/12/2017
  • 3 - 25,8 % del día 13/12/2017
  • 4 - 30,3 % del día 12/12/2017
  • 5 - 41,7 % del día 11/12/2017
  • 6 - 35,6 % del día 10/12/2017
  • 7 - 42,6 % del día 09/12/2017
  • 8 - 17,4 % del día 08/12/2017
  • 9 - 42,6 % del día 07/12/2017
  • 10 - 44,5 % del día 06/12/2017
  • 11 - 34,7 % del día 05/12/2017
  • 12 - 22,9 % del día 04/12/2017
  • 13 - 19,7 % del día 03/12/2017
  • 14 - 25,6 % del día 02/12/2017
  • 15 - 22,6 % del día 01/12/2017
  • 16 - 25,4 % del día 30/11/2017
  • 17 - 70,1 % del día 29/11/2017
  • 18 - 67,6 % del día 28/11/2017
  • 19 - 54,6 % del día 27/11/2017
  • 20 - 44,5 % del día 26/11/2017
  • 21 - 33,5 % del día 25/11/2017
  • 22 - 20,5 % del día 24/11/2017
  • 23 - 13,6 % del día 23/11/2017
  • 24 - 27,7 % del día 22/11/2017
  • 25 - 20,3 % del día 21/11/2017
  • 26 - 37 % del día 20/11/2017
  • 27 - 48 % del día 19/11/2017
  • 28 - 36,9 % del día 18/11/2017
  • 29 - 42,6 % del día 17/11/2017
  • 30 - 20,7 % del día 16/11/2017
  • 31 - 32,8 % del día 15/11/2017
  • 32 - 17,2 % del día 14/11/2017
  • 33 - 20,5 % del día 13/11/2017
  • 34 - 15,8 % del día 12/11/2017
  • 35 - 29,4 % del día 11/11/2017
  • 36 - 24,5 % del día 10/11/2017
  • 37 - 24,8 % del día 09/11/2017
  • 38 - 25 % del día 08/11/2017
  • 39 - 15,6 % del día 07/11/2017
  • 40 - 25,9 % del día 06/11/2017
  • 41 - 30 % del día 05/11/2017
  • 42 - 36,4 % del día 04/11/2017
  • 43 - 60,4 % del día 03/11/2017
  • 44 - 51,4 % del día 02/11/2017
  • 45 - 57,5 % del día 01/11/2017
  • 46 - 45,4 % del día 31/10/2017
  • 47 - 45,4 % del día 30/10/2017
  • 48 - 42,3 % del día 29/10/2017
  • 49 - 49,8 % del día 28/10/2017
  • 50 - 9,6 % del día 27/10/2017
  • 51 - 30,5 % del día 26/10/2017
  • 52 - 27,6 % del día 25/10/2017
  • 53 - 34,6 % del día 24/10/2017
  • 54 - 45,9 % del día 23/10/2017
  • 55 - 46,1 % del día 22/10/2017
  • 56 - 35,7 % del día 21/10/2017
  • 57 - 31,2 % del día 20/10/2017
  • 58 - 29,9 % del día 19/10/2017
  • 59 - 0 % del día 18/10/2017
  • 60 - 0 % del día 17/10/2017

 

|| Temperatura Ambiente|| Velocidad y dirección del viento|| Precipitación|| Radiación Solar Global y PAR|| Temperatura y humedad del suelo|| Presión atmosférica|| Más información|| Volver a la página principal|| Volver al inicio de la página||


Estación Meteorológica de la Universidad de Murcia
http://estacion.um.es/
Informacion actualizada a: 16/12/2017 a las 06:07:00